Time,TemperatureF,DewpointF,PressureIn,WindDirection,WindDirectionDegrees,WindSpeedMPH,WindSpeedGustMPH,Humidity,HourlyPrecipIn,Conditions,Clouds,dailyrainin,SoftwareType,DateUTC
2013-08-07 00:01:00,63.9,60.6,30.03,SE,135,2.7,2.7,89,0.00,,---,0.00,VWS V14.01,2013-08-07 04:01:00,
2013-08-07 00:06:00,64.0,60.4,30.03,SW,225,0.0,0.0,88,0.00,,---,0.00,VWS V14.01,2013-08-07 04:06:00,
2013-08-07 00:11:00,64.0,60.1,30.00,ESE,112,0.0,0.0,87,0.00,,---,0.00,VWS V14.01,2013-08-07 04:11:00,
2013-08-07 00:16:00,64.2,60.3,30.00,ESE,112,0.0,0.0,87,0.00,,---,0.00,VWS V14.01,2013-08-07 04:16:00,
2013-08-07 00:21:00,64.2,60.0,30.00,SE,135,0.0,0.0,86,0.00,,---,0.00,VWS V14.01,2013-08-07 04:21:00,
2013-08-07 00:26:00,64.4,59.8,30.00,ESE,112,0.0,0.0,85,0.00,,---,0.00,VWS V14.01,2013-08-07 04:26:00,
2013-08-07 00:31:00,64.4,59.5,30.00,East,90,2.2,2.2,84,0.00,,---,0.00,VWS V14.01,2013-08-07 04:31:00,
2013-08-07 00:36:00,64.6,59.3,30.00,East,90,0.0,0.0,83,0.00,,---,0.00,VWS V14.01,2013-08-07 04:36:00,
2013-08-07 00:41:00,64.6,59.0,30.03,East,90,0.0,0.0,82,0.00,,---,0.00,VWS V14.01,2013-08-07 04:41:00,
2013-08-07 00:46:00,64.6,59.0,30.03,SE,135,0.0,0.0,82,0.00,,---,0.00,VWS V14.01,2013-08-07 04:46:00,
2013-08-07 00:51:00,64.8,58.8,30.03,ESE,112,0.0,0.0,81,0.00,,---,0.00,VWS V14.01,2013-08-07 04:51:00,
2013-08-07 00:56:00,64.9,58.6,30.00,ESE,112,0.0,0.0,80,0.00,,---,0.00,VWS V14.01,2013-08-07 04:56:00,
2013-08-07 01:01:00,64.6,58.3,30.00,SW,225,0.0,0.0,80,0.00,,---,0.00,VWS V14.01,2013-08-07 05:01:00,
2013-08-07 01:06:00,64.6,58.3,30.00,SW,225,0.0,0.0,80,0.00,,---,0.00,VWS V14.01,2013-08-07 05:06:00,
2013-08-07 01:11:00,64.4,58.1,30.00,ESE,112,0.0,0.0,80,0.00,,---,0.00,VWS V14.01,2013-08-07 05:11:00,
2013-08-07 01:16:00,64.4,58.1,30.00,SW,225,0.0,2.7,80,0.00,,---,0.00,VWS V14.01,2013-08-07 05:16:00,
2013-08-07 01:21:00,64.4,58.1,30.00,SSW,202,0.0,0.0,80,0.00,,---,0.00,VWS V14.01,2013-08-07 05:21:00,
2013-08-07 01:26:00,64.8,58.5,30.00,SE,135,4.0,4.0,80,0.00,,---,0.00,VWS V14.01,2013-08-07 05:26:00,
2013-08-07 01:31:00,65.1,58.5,30.00,ESE,112,0.0,0.0,79,0.00,,---,0.00,VWS V14.01,2013-08-07 05:31:00,
2013-08-07 01:36:00,65.5,58.1,30.00,ESE,112,0.0,0.0,77,0.00,,---,0.00,VWS V14.01,2013-08-07 05:36:00,
2013-08-07 01:41:00,65.7,57.9,30.00,SE,135,3.1,3.1,76,0.00,,---,0.00,VWS V14.01,2013-08-07 05:41:00,
2013-08-07 01:46:00,65.8,57.7,30.00,SE,135,3.1,3.1,75,0.00,,---,0.00,VWS V14.01,2013-08-07 05:46:00,
2013-08-07 01:51:00,65.8,57.3,30.00,SE,135,3.1,3.1,74,0.00,,---,0.00,VWS V14.01,2013-08-07 05:51:00,
2013-08-07 01:56:00,65.8,57.3,30.00,South,180,2.2,2.2,74,0.00,,---,0.00,VWS V14.01,2013-08-07 05:56:00,
2013-08-07 02:01:00,65.8,57.3,30.00,NE,45,2.2,2.2,74,0.00,,---,0.00,VWS V14.01,2013-08-07 06:01:00,
2013-08-07 02:06:00,66.0,57.5,30.00,NE,45,0.0,0.0,74,0.00,,---,0.00,VWS V14.01,2013-08-07 06:06:00,
2013-08-07 02:11:00,66.0,57.9,30.00,NE,45,0.0,0.0,75,0.00,,---,0.00,VWS V14.01,2013-08-07 06:11:00,
2013-08-07 02:16:00,66.0,58.2,30.00,NE,45,3.1,3.1,76,0.00,,---,0.00,VWS V14.01,2013-08-07 06:16:00,
2013-08-07 02:21:00,66.0,58.6,30.00,NE,45,3.1,3.1,77,0.00,,---,0.00,VWS V14.01,2013-08-07 06:21:00,
2013-08-07 02:26:00,66.2,58.8,30.00,NE,45,3.1,3.1,77,0.00,,---,0.00,VWS V14.01,2013-08-07 06:26:00,
2013-08-07 02:31:00,66.4,59.3,30.00,NE,45,3.1,3.1,78,0.00,,---,0.00,VWS V14.01,2013-08-07 06:31:00,
2013-08-07 02:36:00,66.6,59.5,30.00,NE,45,3.1,3.1,78,0.00,,---,0.00,VWS V14.01,2013-08-07 06:36:00,
2013-08-07 02:41:00,66.6,59.5,30.00,NW,315,0.0,0.0,78,0.00,,---,0.00,VWS V14.01,2013-08-07 06:41:00,
2013-08-07 02:46:00,66.6,59.5,30.00,SW,225,4.5,4.5,78,0.00,,---,0.00,VWS V14.01,2013-08-07 06:46:00,
2013-08-07 02:51:00,66.6,59.8,30.00,SE,135,3.1,3.1,79,0.00,,---,0.00,VWS V14.01,2013-08-07 06:51:00,
2013-08-07 02:56:00,66.6,59.8,30.00,SW,225,4.0,5.8,79,0.00,,---,0.00,VWS V14.01,2013-08-07 06:56:00,
2013-08-07 03:01:00,66.4,59.7,30.00,SW,225,3.6,3.6,79,0.00,,---,0.00,VWS V14.01,2013-08-07 07:01:00,
2013-08-07 03:06:00,66.4,59.7,30.00,South,180,0.0,3.6,79,0.00,,---,0.00,VWS V14.01,2013-08-07 07:06:00,
2013-08-07 03:11:00,66.4,59.7,30.00,SW,225,3.1,4.9,79,0.00,,---,0.00,VWS V14.01,2013-08-07 07:11:00,
2013-08-07 03:16:00,66.2,59.9,30.00,SW,225,2.7,2.7,80,0.00,,---,0.00,VWS V14.01,2013-08-07 07:16:00,
2013-08-07 03:21:00,66.2,59.9,30.00,South,180,2.7,4.0,80,0.00,,---,0.00,VWS V14.01,2013-08-07 07:21:00,
2013-08-07 03:26:00,66.0,60.0,30.00,East,90,2.7,2.7,81,0.00,,---,0.00,VWS V14.01,2013-08-07 07:26:00,
2013-08-07 03:31:00,65.8,60.2,30.00,South,180,2.7,3.6,82,0.00,,---,0.00,VWS V14.01,2013-08-07 07:31:00,
2013-08-07 03:36:00,65.8,60.2,30.00,SW,225,2.7,3.1,82,0.00,,---,0.00,VWS V14.01,2013-08-07 07:36:00,
2013-08-07 03:41:00,65.7,60.0,30.00,SW,225,2.7,3.1,82,0.00,,---,0.00,VWS V14.01,2013-08-07 07:41:00,
2013-08-07 03:46:00,65.7,60.4,30.00,ESE,112,5.4,6.3,83,0.00,,---,0.00,VWS V14.01,2013-08-07 07:46:00,
2013-08-07 03:51:00,65.7,60.4,30.00,SSW,202,2.2,3.6,83,0.00,,---,0.00,VWS V14.01,2013-08-07 07:51:00,
2013-08-07 03:56:00,65.5,60.5,30.00,South,180,3.6,3.6,84,0.00,,---,0.00,VWS V14.01,2013-08-07 07:56:00,
2013-08-07 04:01:00,65.5,60.5,30.00,NE,45,0.0,0.0,84,0.00,,---,0.00,VWS V14.01,2013-08-07 08:01:00,
2013-08-07 04:06:00,65.3,60.7,30.00,East,90,0.0,5.4,85,0.00,,---,0.00,VWS V14.01,2013-08-07 08:06:00,
2013-08-07 04:11:00,65.3,60.7,30.03,South,180,3.1,3.1,85,0.00,,---,0.00,VWS V14.01,2013-08-07 08:11:00,
2013-08-07 04:16:00,65.3,61.0,30.03,NW,315,3.1,3.1,86,0.00,,---,0.00,VWS V14.01,2013-08-07 08:16:00,
2013-08-07 04:21:00,65.5,61.2,30.03,NNE,22,0.0,3.1,86,0.00,,---,0.00,VWS V14.01,2013-08-07 08:21:00,
2013-08-07 04:26:00,65.3,61.0,30.00,SW,225,3.6,3.6,86,0.00,,---,0.00,VWS V14.01,2013-08-07 08:26:00,
2013-08-07 04:31:00,65.1,60.8,30.00,SE,135,3.1,7.2,86,0.00,,---,0.00,VWS V14.01,2013-08-07 08:31:00,
2013-08-07 04:36:00,65.3,61.0,30.00,South,180,7.2,7.2,86,0.00,,---,0.00,VWS V14.01,2013-08-07 08:36:00,
2013-08-07 04:41:00,65.3,61.0,30.00,SE,135,4.9,5.4,86,0.00,,---,0.00,VWS V14.01,2013-08-07 08:41:00,
2013-08-07 04:46:00,65.3,61.0,30.00,South,180,2.7,3.1,86,0.00,,---,0.00,VWS V14.01,2013-08-07 08:46:00,
2013-08-07 04:51:00,65.3,61.0,30.00,East,90,2.7,4.0,86,0.00,,---,0.00,VWS V14.01,2013-08-07 08:51:00,
2013-08-07 04:56:00,65.3,61.0,30.00,SW,225,2.2,4.0,86,0.00,,---,0.00,VWS V14.01,2013-08-07 08:56:00,
2013-08-07 05:01:00,65.3,61.0,30.00,South,180,4.0,4.0,86,0.00,,---,0.00,VWS V14.01,2013-08-07 09:01:00,
2013-08-07 05:06:00,65.3,61.0,30.00,South,180,2.2,2.2,86,0.00,,---,0.00,VWS V14.01,2013-08-07 09:06:00,
2013-08-07 05:11:00,65.3,61.3,30.00,South,180,6.3,6.3,87,0.00,,---,0.00,VWS V14.01,2013-08-07 09:11:00,
2013-08-07 05:16:00,65.3,61.3,30.00,South,180,6.3,6.3,87,0.00,,---,0.00,VWS V14.01,2013-08-07 09:16:00,
2013-08-07 05:21:00,65.3,61.3,30.00,SE,135,4.0,4.0,87,0.00,,---,0.00,VWS V14.01,2013-08-07 09:21:00,
2013-08-07 05:26:00,65.3,61.3,30.00,ESE,112,2.7,2.7,87,0.00,,---,0.00,VWS V14.01,2013-08-07 09:26:00,
2013-08-07 05:31:00,65.3,61.3,30.00,South,180,2.7,4.0,87,0.00,,---,0.00,VWS V14.01,2013-08-07 09:31:00,
2013-08-07 05:36:00,65.1,61.2,30.00,South,180,3.1,6.3,87,0.00,,---,0.00,VWS V14.01,2013-08-07 09:36:00,
2013-08-07 05:41:00,65.1,61.5,30.00,WSW,248,3.1,4.0,88,0.00,,---,0.00,VWS V14.01,2013-08-07 09:41:00,
2013-08-07 05:46:00,64.9,61.3,30.00,West,270,4.9,4.9,88,0.00,,---,0.00,VWS V14.01,2013-08-07 09:46:00,
2013-08-07 05:51:00,64.9,61.3,30.00,ENE,68,2.7,2.7,88,0.00,,---,0.00,VWS V14.01,2013-08-07 09:51:00,
2013-08-07 05:56:00,64.9,61.3,30.00,SE,135,3.1,5.8,88,0.00,,---,0.00,VWS V14.01,2013-08-07 09:56:00,
2013-08-07 06:01:00,64.9,61.6,30.00,SE,135,2.2,3.1,89,0.00,,---,0.00,VWS V14.01,2013-08-07 10:01:00,
2013-08-07 06:06:00,64.8,61.5,30.00,East,90,3.6,3.6,89,0.00,,---,0.00,VWS V14.01,2013-08-07 10:06:00,
2013-08-07 06:11:00,64.8,61.5,29.97,SE,135,3.1,4.5,89,0.00,,---,0.00,VWS V14.01,2013-08-07 10:11:00,
2013-08-07 06:16:00,64.8,61.5,29.97,SW,225,0.0,0.0,89,0.00,,---,0.00,VWS V14.01,2013-08-07 10:16:00,
2013-08-07 06:21:00,64.8,61.5,29.97,South,180,0.0,3.6,89,0.00,,---,0.00,VWS V14.01,2013-08-07 10:21:00,
2013-08-07 06:26:00,64.8,61.5,29.97,East,90,0.0,2.7,89,0.00,,---,0.00,VWS V14.01,2013-08-07 10:26:00,
2013-08-07 06:31:00,64.8,61.5,29.97,NNE,22,0.0,3.6,89,0.00,,---,0.00,VWS V14.01,2013-08-07 10:31:00,
2013-08-07 06:36:00,64.6,61.6,29.97,SE,135,4.0,4.0,90,0.00,,---,0.00,VWS V14.01,2013-08-07 10:36:00,
2013-08-07 06:41:00,64.8,61.8,29.97,ESE,112,2.7,4.0,90,0.00,,---,0.00,VWS V14.01,2013-08-07 10:41:00,
2013-08-07 06:46:00,64.8,61.8,29.97,SE,135,4.9,4.9,90,0.00,,---,0.00,VWS V14.01,2013-08-07 10:46:00,
2013-08-07 06:51:00,65.1,62.1,29.97,South,180,3.1,3.1,90,0.00,,---,0.00,VWS V14.01,2013-08-07 10:51:00,
2013-08-07 06:56:00,65.3,62.3,30.00,ENE,68,0.0,2.2,90,0.00,,---,0.00,VWS V14.01,2013-08-07 10:56:00,
2013-08-07 07:01:00,65.5,62.5,30.00,SE,135,0.0,0.0,90,0.00,,---,0.00,VWS V14.01,2013-08-07 11:01:00,
2013-08-07 07:06:00,65.5,62.5,30.00,ESE,112,3.6,5.8,90,0.00,,---,0.00,VWS V14.01,2013-08-07 11:06:00,
2013-08-07 07:11:00,65.7,62.3,30.00,South,180,4.0,4.0,89,0.00,,---,0.00,VWS V14.01,2013-08-07 11:11:00,
2013-08-07 07:16:00,65.7,62.3,30.00,SSW,202,2.2,3.1,89,0.00,,---,0.00,VWS V14.01,2013-08-07 11:16:00,
2013-08-07 07:21:00,65.8,62.5,30.00,SE,135,4.0,6.3,89,0.00,,---,0.00,VWS V14.01,2013-08-07 11:21:00,
2013-08-07 07:26:00,66.0,62.7,30.00,South,180,2.7,5.4,89,0.00,,---,0.00,VWS V14.01,2013-08-07 11:26:00,
2013-08-07 07:31:00,66.0,62.7,30.00,SSE,158,3.6,4.0,89,0.00,,---,0.00,VWS V14.01,2013-08-07 11:31:00,
2013-08-07 07:36:00,66.2,62.5,30.00,East,90,2.2,4.0,88,0.00,,---,0.00,VWS V14.01,2013-08-07 11:36:00,
2013-08-07 07:41:00,66.6,62.9,30.00,East,90,2.2,4.0,88,0.00,,---,0.00,VWS V14.01,2013-08-07 11:41:00,
2013-08-07 07:46:00,66.7,62.8,30.00,South,180,2.7,2.7,87,0.00,,---,0.00,VWS V14.01,2013-08-07 11:46:00,
2013-08-07 07:51:00,66.9,62.9,30.00,South,180,2.2,3.6,87,0.00,,---,0.00,VWS V14.01,2013-08-07 11:51:00,
2013-08-07 07:56:00,67.3,63.0,30.00,West,270,0.0,2.2,86,0.00,,---,0.00,VWS V14.01,2013-08-07 11:56:00,
2013-08-07 08:01:00,67.5,63.1,30.00,SW,225,6.7,6.7,86,0.00,,---,0.00,VWS V14.01,2013-08-07 12:01:00,
2013-08-07 08:06:00,67.6,63.0,30.00,South,180,5.4,5.4,85,0.00,,---,0.00,VWS V14.01,2013-08-07 12:06:00,
2013-08-07 08:11:00,68.0,63.0,30.00,SW,225,4.5,8.1,84,0.00,,---,0.00,VWS V14.01,2013-08-07 12:11:00,
2013-08-07 08:16:00,68.4,62.7,30.00,East,90,2.7,10.1,82,0.00,,---,0.00,VWS V14.01,2013-08-07 12:16:00,
2013-08-07 08:21:00,68.7,62.7,30.00,SW,225,9.6,9.6,81,0.00,,---,0.00,VWS V14.01,2013-08-07 12:21:00,
2013-08-07 08:26:00,69.1,62.7,30.00,SW,225,0.0,3.1,80,0.00,,---,0.00,VWS V14.01,2013-08-07 12:26:00,
2013-08-07 08:31:00,69.3,62.8,30.00,SW,225,7.2,7.2,80,0.00,,---,0.00,VWS V14.01,2013-08-07 12:31:00,
2013-08-07 08:36:00,69.6,62.8,30.00,SW,225,3.1,4.0,79,0.00,,---,0.00,VWS V14.01,2013-08-07 12:36:00,
2013-08-07 08:41:00,70.0,62.5,30.00,SSW,202,0.0,7.2,77,0.00,,---,0.00,VWS V14.01,2013-08-07 12:41:00,
2013-08-07 08:46:00,70.5,63.0,30.00,South,180,5.4,5.4,77,0.00,,---,0.00,VWS V14.01,2013-08-07 12:46:00,
2013-08-07 08:51:00,71.1,62.7,30.00,SW,225,3.6,3.6,75,0.00,,---,0.00,VWS V14.01,2013-08-07 12:51:00,
2013-08-07 08:56:00,71.8,63.1,30.00,SW,225,0.0,4.0,74,0.00,,---,0.00,VWS V14.01,2013-08-07 12:56:00,
2013-08-07 09:01:00,72.5,63.0,30.00,SE,135,4.9,6.3,72,0.00,,---,0.00,VWS V14.01,2013-08-07 13:01:00,
2013-08-07 09:06:00,72.9,62.5,30.00,SSW,202,8.1,8.1,70,0.00,,---,0.00,VWS V14.01,2013-08-07 13:06:00,
2013-08-07 09:11:00,73.4,62.6,30.00,East,90,3.1,3.1,69,0.00,,---,0.00,VWS V14.01,2013-08-07 13:11:00,
2013-08-07 09:16:00,73.6,61.5,30.00,SW,225,6.3,6.3,66,0.00,,---,0.00,VWS V14.01,2013-08-07 13:16:00,
2013-08-07 09:21:00,73.6,62.0,30.00,West,270,4.9,7.2,67,0.00,,---,0.00,VWS V14.01,2013-08-07 13:21:00,
2013-08-07 09:26:00,73.8,62.1,30.00,East,90,6.3,7.2,67,0.00,,---,0.00,VWS V14.01,2013-08-07 13:26:00,
2013-08-07 09:31:00,73.9,62.3,30.00,SW,225,4.9,4.9,67,0.00,,---,0.00,VWS V14.01,2013-08-07 13:31:00,
2013-08-07 09:36:00,74.5,62.0,30.00,SE,135,7.6,8.1,65,0.00,,---,0.00,VWS V14.01,2013-08-07 13:36:00,
2013-08-07 09:41:00,74.8,62.3,30.00,SSW,202,6.7,9.6,65,0.00,,---,0.00,VWS V14.01,2013-08-07 13:41:00,
2013-08-07 09:46:00,74.8,61.0,30.00,ESE,112,0.0,2.2,62,0.00,,---,0.00,VWS V14.01,2013-08-07 13:46:00,
2013-08-07 09:51:00,75.6,61.6,30.00,SE,135,4.9,5.8,62,0.00,,---,0.00,VWS V14.01,2013-08-07 13:51:00,
2013-08-07 09:56:00,75.4,61.0,29.97,South,180,3.1,5.8,61,0.00,,---,0.00,VWS V14.01,2013-08-07 13:56:00,
2013-08-07 10:01:00,75.9,61.5,29.97,SW,225,7.2,7.2,61,0.00,,---,0.00,VWS V14.01,2013-08-07 14:01:00,
2013-08-07 10:06:00,76.5,61.6,29.97,SW,225,3.6,5.4,60,0.00,,---,0.00,VWS V14.01,2013-08-07 14:06:00,
2013-08-07 10:11:00,77.4,61.4,30.00,East,90,0.0,3.6,58,0.00,,---,0.00,VWS V14.01,2013-08-07 14:11:00,
2013-08-07 10:16:00,77.7,60.8,30.00,South,180,8.3,8.3,56,0.00,,---,0.00,VWS V14.01,2013-08-07 14:16:00,
2013-08-07 10:21:00,77.4,58.4,30.00,South,180,3.1,8.7,52,0.00,,---,0.00,VWS V14.01,2013-08-07 14:21:00,
2013-08-07 10:26:00,77.9,59.4,30.00,South,180,8.7,8.7,53,0.00,,---,0.00,VWS V14.01,2013-08-07 14:26:00,
2013-08-07 10:31:00,77.9,59.9,30.00,SW,225,3.6,5.8,54,0.00,,---,0.00,VWS V14.01,2013-08-07 14:31:00,
2013-08-07 10:36:00,78.4,59.4,30.00,South,180,2.7,3.1,52,0.00,,---,0.00,VWS V14.01,2013-08-07 14:36:00,
2013-08-07 10:41:00,78.8,58.0,30.00,SW,225,2.7,13.2,49,0.00,,---,0.00,VWS V14.01,2013-08-07 14:41:00,
2013-08-07 10:46:00,78.8,58.6,30.00,SSE,158,4.0,6.7,50,0.00,,---,0.00,VWS V14.01,2013-08-07 14:46:00,
2013-08-07 10:51:00,78.8,58.0,30.00,SSW,202,6.3,7.6,49,0.00,,---,0.00,VWS V14.01,2013-08-07 14:51:00,
2013-08-07 10:56:00,79.9,59.6,30.00,SSE,158,3.6,6.3,50,0.00,,---,0.00,VWS V14.01,2013-08-07 14:56:00,
2013-08-07 11:01:00,79.2,58.4,30.00,West,270,5.8,7.2,49,0.00,,---,0.00,VWS V14.01,2013-08-07 15:01:00,
2013-08-07 11:06:00,78.1,59.6,30.00,SW,225,4.0,4.0,53,0.00,,---,0.00,VWS V14.01,2013-08-07 15:06:00,
2013-08-07 11:11:00,78.3,61.3,30.00,SW,225,4.9,4.9,56,0.00,,---,0.00,VWS V14.01,2013-08-07 15:11:00,
2013-08-07 11:16:00,78.1,60.1,30.00,South,180,2.7,3.6,54,0.00,,---,0.00,VWS V14.01,2013-08-07 15:16:00,
2013-08-07 11:21:00,78.1,60.6,30.00,SSE,158,4.9,5.4,55,0.00,,---,0.00,VWS V14.01,2013-08-07 15:21:00,
2013-08-07 11:26:00,78.3,60.8,30.00,SW,225,3.1,4.9,55,0.00,,---,0.00,VWS V14.01,2013-08-07 15:26:00,
2013-08-07 11:31:00,78.8,61.3,30.00,SW,225,3.6,3.6,55,0.00,,---,0.00,VWS V14.01,2013-08-07 15:31:00,
2013-08-07 11:36:00,78.8,60.8,30.00,SW,225,7.6,7.6,54,0.00,,---,0.00,VWS V14.01,2013-08-07 15:36:00,
2013-08-07 11:41:00,78.6,59.5,30.00,West,270,0.0,8.3,52,0.00,,---,0.00,VWS V14.01,2013-08-07 15:41:00,
2013-08-07 11:46:00,79.3,61.3,30.00,SW,225,5.8,7.6,54,0.00,,---,0.00,VWS V14.01,2013-08-07 15:46:00,
2013-08-07 11:51:00,80.4,62.3,30.00,East,90,3.1,4.0,54,0.00,,---,0.00,VWS V14.01,2013-08-07 15:51:00,
2013-08-07 11:56:00,81.3,61.5,30.00,SSW,202,6.3,7.6,51,0.00,,---,0.00,VWS V14.01,2013-08-07 15:56:00,
2013-08-07 12:01:00,81.5,60.5,30.00,SE,135,4.9,5.8,49,0.00,,---,0.00,VWS V14.01,2013-08-07 16:01:00,
2013-08-07 12:06:00,82.0,61.0,30.00,SSE,158,3.1,5.4,49,0.00,,---,0.00,VWS V14.01,2013-08-07 16:06:00,
2013-08-07 12:11:00,82.4,60.2,30.00,SW,225,3.6,8.7,47,0.00,,---,0.00,VWS V14.01,2013-08-07 16:11:00,
2013-08-07 12:16:00,81.5,59.3,30.00,SW,225,6.3,9.6,47,0.00,,---,0.00,VWS V14.01,2013-08-07 16:16:00,
2013-08-07 12:21:00,82.0,60.4,30.00,SW,225,3.6,11.0,48,0.00,,---,0.00,VWS V14.01,2013-08-07 16:21:00,
2013-08-07 12:26:00,82.9,61.2,30.00,WSW,248,3.1,7.6,48,0.00,,---,0.00,VWS V14.01,2013-08-07 16:26:00,
2013-08-07 12:31:00,82.6,59.7,30.00,SSW,202,4.9,5.8,46,0.00,,---,0.00,VWS V14.01,2013-08-07 16:31:00,
2013-08-07 12:36:00,82.4,60.8,30.00,SW,225,5.4,5.4,48,0.00,,---,0.00,VWS V14.01,2013-08-07 16:36:00,
2013-08-07 12:41:00,80.6,60.3,30.00,SE,135,4.0,8.3,50,0.00,,---,0.00,VWS V14.01,2013-08-07 16:41:00,
2013-08-07 12:46:00,79.9,61.2,30.00,South,180,2.7,8.1,53,0.00,,---,0.04,VWS V14.01,2013-08-07 16:46:00,
2013-08-07 12:51:00,79.3,61.3,30.00,SW,225,4.9,4.9,54,0.00,,---,0.00,VWS V14.01,2013-08-07 16:51:00,
2013-08-07 12:56:00,78.6,62.1,30.00,WSW,248,2.2,5.8,57,0.00,,---,0.00,VWS V14.01,2013-08-07 16:56:00,
2013-08-07 13:01:00,77.9,62.9,30.00,SW,225,2.7,3.6,60,0.00,,---,0.00,VWS V14.01,2013-08-07 17:01:00,
2013-08-07 13:06:00,77.0,63.9,30.00,SSW,202,3.1,5.4,64,0.00,,---,0.00,VWS V14.01,2013-08-07 17:06:00,
2013-08-07 13:11:00,76.5,65.1,30.00,South,180,3.1,3.1,68,0.00,,---,0.00,VWS V14.01,2013-08-07 17:11:00,
2013-08-07 13:16:00,76.1,65.2,30.00,West,270,4.0,4.9,69,0.00,,---,0.00,VWS V14.01,2013-08-07 17:16:00,
2013-08-07 13:21:00,75.9,65.4,30.00,South,180,3.6,6.3,70,0.00,,---,0.00,VWS V14.01,2013-08-07 17:21:00,
2013-08-07 13:26:00,75.9,65.4,30.00,SW,225,2.2,5.4,70,0.00,,---,0.00,VWS V14.01,2013-08-07 17:26:00,
2013-08-07 13:31:00,75.9,65.4,30.00,SW,225,2.7,3.6,70,0.00,,---,0.00,VWS V14.01,2013-08-07 17:31:00,
2013-08-07 13:36:00,75.4,66.5,30.00,NE,45,3.1,3.1,74,0.00,,---,0.00,VWS V14.01,2013-08-07 17:36:00,
2013-08-07 13:41:00,75.0,67.3,30.00,SW,225,2.7,5.8,77,0.00,,---,0.00,VWS V14.01,2013-08-07 17:41:00,
2013-08-07 13:46:00,74.8,67.9,30.00,SSW,202,2.7,3.1,79,0.00,,---,0.00,VWS V14.01,2013-08-07 17:46:00,
2013-08-07 13:51:00,74.7,68.4,30.00,SE,135,2.2,4.0,81,0.00,,---,0.00,VWS V14.01,2013-08-07 17:51:00,
2013-08-07 13:56:00,75.2,69.7,30.00,West,270,0.0,3.1,83,0.00,,---,0.00,VWS V14.01,2013-08-07 17:56:00,
2013-08-07 14:01:00,75.9,70.0,30.00,South,180,6.7,6.7,82,0.00,,---,0.00,VWS V14.01,2013-08-07 18:01:00,
2013-08-07 14:06:00,77.2,71.3,30.00,East,90,3.6,3.6,82,0.00,,---,0.00,VWS V14.01,2013-08-07 18:06:00,
2013-08-07 14:11:00,77.4,70.0,30.00,SW,225,2.2,4.9,78,0.00,,---,0.00,VWS V14.01,2013-08-07 18:11:00,
2013-08-07 14:16:00,77.5,69.8,30.00,SW,225,5.4,8.1,77,0.00,,---,0.00,VWS V14.01,2013-08-07 18:16:00,
2013-08-07 14:21:00,77.4,68.4,30.00,South,180,4.9,5.4,74,0.00,,---,0.00,VWS V14.01,2013-08-07 18:21:00,
2013-08-07 14:26:00,77.4,68.4,30.00,East,90,3.6,8.7,74,0.00,,---,0.00,VWS V14.01,2013-08-07 18:26:00,
2013-08-07 14:31:00,77.2,67.1,30.00,SW,225,5.8,9.6,71,0.00,,---,0.00,VWS V14.01,2013-08-07 18:31:00,
2013-08-07 14:36:00,77.0,67.3,30.00,South,180,3.6,4.9,72,0.00,,---,0.00,VWS V14.01,2013-08-07 18:36:00,
2013-08-07 14:41:00,76.8,67.1,30.00,South,180,2.7,7.2,72,0.00,,---,0.00,VWS V14.01,2013-08-07 18:41:00,
2013-08-07 14:46:00,77.2,67.5,30.00,East,90,3.1,4.9,72,0.00,,---,0.00,VWS V14.01,2013-08-07 18:46:00,
2013-08-07 14:51:00,78.3,67.7,30.00,SW,225,3.1,3.1,70,0.00,,---,0.00,VWS V14.01,2013-08-07 18:51:00,
2013-08-07 14:56:00,79.3,67.9,30.00,South,180,10.1,10.1,68,0.00,,---,0.00,VWS V14.01,2013-08-07 18:56:00,
2013-08-07 15:01:00,78.1,65.8,30.00,SW,225,7.6,7.6,66,0.00,,---,0.00,VWS V14.01,2013-08-07 19:01:00,
2013-08-07 15:06:00,77.4,65.6,30.00,West,270,4.9,10.5,67,0.00,,---,0.00,VWS V14.01,2013-08-07 19:06:00,
2013-08-07 15:07:00,77.4,65.6,30.00,West,270,4.9,10.5,67,0.00,,---,0.00,VWS V14.01,2013-08-07 19:07:00,
2013-08-07 15:12:00,77.4,66.4,30.00,SSW,202,7.6,7.6,69,0.00,,---,0.00,VWS V14.01,2013-08-07 19:12:00,
2013-08-07 15:17:00,77.2,66.7,30.00,South,180,13.2,13.2,70,0.00,,---,0.00,VWS V14.01,2013-08-07 19:17:00,
2013-08-07 15:22:00,77.2,66.2,30.00,West,270,8.3,8.3,69,0.00,,---,0.00,VWS V14.01,2013-08-07 19:22:00,
2013-08-07 15:27:00,77.5,67.0,30.00,SSW,202,5.8,7.2,70,0.00,,---,0.00,VWS V14.01,2013-08-07 19:27:00,
2013-08-07 15:32:00,77.5,66.2,30.00,SW,225,9.6,10.1,68,0.00,,---,0.00,VWS V14.01,2013-08-07 19:32:00,
2013-08-07 15:37:00,79.0,67.5,30.00,South,180,7.2,8.1,68,0.00,,---,0.00,VWS V14.01,2013-08-07 19:37:00,
2013-08-07 15:42:00,78.6,66.3,30.00,NE,45,3.1,7.2,66,0.00,,---,0.00,VWS V14.01,2013-08-07 19:42:00,
2013-08-07 15:47:00,78.6,65.9,30.00,South,180,2.7,12.3,65,0.00,,---,0.00,VWS V14.01,2013-08-07 19:47:00,
2013-08-07 15:52:00,79.0,65.8,30.00,SW,225,7.6,9.2,64,0.00,,---,0.00,VWS V14.01,2013-08-07 19:52:00,
2013-08-07 15:57:00,80.1,67.2,29.97,West,270,2.7,4.0,65,0.00,,---,0.00,VWS V14.01,2013-08-07 19:57:00,
2013-08-07 16:02:00,80.8,65.6,29.97,SW,225,3.1,5.8,60,0.00,,---,0.00,VWS V14.01,2013-08-07 20:02:00,
2013-08-07 16:07:00,81.3,64.1,29.97,South,180,3.1,6.3,56,0.00,,---,0.00,VWS V14.01,2013-08-07 20:07:00,
2013-08-07 16:11:00,81.3,63.1,29.97,SSW,202,6.3,6.3,54,0.00,,---,0.00,VWS V14.01,2013-08-07 20:11:00,
2013-08-07 16:16:00,81.0,62.8,29.97,SW,225,2.7,7.2,54,0.00,,---,0.00,VWS V14.01,2013-08-07 20:16:00,
2013-08-07 16:21:00,79.7,61.6,29.97,SW,225,3.6,8.1,54,0.00,,---,0.00,VWS V14.01,2013-08-07 20:21:00,
2013-08-07 16:26:00,79.3,62.8,29.97,SSW,202,4.0,4.0,57,0.00,,---,0.00,VWS V14.01,2013-08-07 20:26:00,
2013-08-07 16:31:00,78.3,62.3,29.97,SSW,202,8.1,8.1,58,0.00,,---,0.00,VWS V14.01,2013-08-07 20:31:00,
2013-08-07 16:37:00,78.3,63.7,29.97,South,180,3.1,8.7,61,0.00,,---,0.00,VWS V14.01,2013-08-07 20:37:00,
2013-08-07 16:42:00,78.1,63.5,29.97,South,180,5.8,5.8,61,0.00,,---,0.00,VWS V14.01,2013-08-07 20:42:00,
2013-08-07 16:47:00,77.5,63.0,29.97,South,180,3.1,6.3,61,0.00,,---,0.00,VWS V14.01,2013-08-07 20:47:00,
2013-08-07 16:52:00,76.6,63.1,29.97,South,180,8.7,8.7,63,0.00,,---,0.00,VWS V14.01,2013-08-07 20:52:00,
2013-08-07 16:57:00,76.5,63.8,30.00,South,180,3.6,5.4,65,0.00,,---,0.00,VWS V14.01,2013-08-07 20:57:00,
2013-08-07 17:02:00,76.3,62.8,30.00,South,180,2.2,6.3,63,0.00,,---,0.00,VWS V14.01,2013-08-07 21:02:00,
2013-08-07 17:07:00,76.6,64.0,30.00,SSW,202,3.6,5.4,65,0.00,,---,0.00,VWS V14.01,2013-08-07 21:07:00,
2013-08-07 17:12:00,76.6,63.6,29.97,SW,225,2.7,8.1,64,0.00,,---,0.00,VWS V14.01,2013-08-07 21:12:00,
2013-08-07 17:16:00,77.0,63.0,29.97,SE,135,3.6,6.3,62,0.00,,---,0.00,VWS V14.01,2013-08-07 21:16:00,
2013-08-07 17:22:00,77.4,62.9,29.97,WSW,248,3.6,6.3,61,0.00,,---,0.00,VWS V14.01,2013-08-07 21:22:00,
2013-08-07 17:27:00,77.9,62.9,29.97,East,90,2.7,7.6,60,0.00,,---,0.00,VWS V14.01,2013-08-07 21:27:00,
2013-08-07 17:32:00,77.9,62.4,29.97,South,180,8.3,8.3,59,0.00,,---,0.00,VWS V14.01,2013-08-07 21:32:00,
2013-08-07 17:37:00,77.7,61.3,29.97,West,270,3.6,5.4,57,0.00,,---,0.00,VWS V14.01,2013-08-07 21:37:00,
2013-08-07 17:42:00,77.5,61.1,29.97,South,180,3.6,6.3,57,0.00,,---,0.00,VWS V14.01,2013-08-07 21:42:00,
2013-08-07 17:47:00,77.5,60.6,29.97,SW,225,3.1,5.4,56,0.00,,---,0.00,VWS V14.01,2013-08-07 21:47:00,
2013-08-07 17:52:00,77.7,59.8,29.97,SW,225,6.3,6.3,54,0.00,,---,0.00,VWS V14.01,2013-08-07 21:52:00,
2013-08-07 17:57:00,77.5,60.1,29.97,North,0,0.0,6.7,55,0.00,,---,0.00,VWS V14.01,2013-08-07 21:57:00,
2013-08-07 18:01:00,77.7,60.3,29.97,South,180,3.1,3.6,55,0.00,,---,0.00,VWS V14.01,2013-08-07 22:01:00,
2013-08-07 18:07:00,77.7,59.8,29.97,SW,225,2.7,4.0,54,0.00,,---,0.00,VWS V14.01,2013-08-07 22:07:00,
2013-08-07 18:12:00,77.7,60.3,29.97,South,180,6.3,7.6,55,0.00,,---,0.00,VWS V14.01,2013-08-07 22:12:00,
2013-08-07 18:17:00,77.5,61.1,29.97,SW,225,4.0,5.4,57,0.00,,---,0.00,VWS V14.01,2013-08-07 22:17:00,
2013-08-07 18:22:00,77.5,60.6,29.97,South,180,4.0,6.3,56,0.00,,---,0.00,VWS V14.01,2013-08-07 22:22:00,
2013-08-07 18:27:00,77.4,60.5,29.97,West,270,4.9,7.6,56,0.00,,---,0.00,VWS V14.01,2013-08-07 22:27:00,
2013-08-07 18:32:00,77.4,60.0,29.97,West,270,3.1,3.1,55,0.00,,---,0.00,VWS V14.01,2013-08-07 22:32:00,
2013-08-07 18:37:00,77.5,60.1,29.97,SSW,202,3.6,3.6,55,0.00,,---,0.00,VWS V14.01,2013-08-07 22:37:00,
2013-08-07 18:42:00,77.7,60.3,29.97,South,180,3.1,4.0,55,0.00,,---,0.00,VWS V14.01,2013-08-07 22:42:00,
2013-08-07 18:47:00,77.7,60.3,29.97,SW,225,0.0,3.6,55,0.00,,---,0.00,VWS V14.01,2013-08-07 22:47:00,
2013-08-07 18:51:00,77.7,60.8,29.97,SW,225,0.0,2.7,56,0.00,,---,0.00,VWS V14.01,2013-08-07 22:51:00,
2013-08-07 18:56:00,77.9,61.0,29.97,SSW,202,2.7,5.4,56,0.00,,---,0.00,VWS V14.01,2013-08-07 22:56:00,
2013-08-07 19:01:00,77.4,61.0,29.97,SE,135,2.2,4.9,57,0.00,,---,0.00,VWS V14.01,2013-08-07 23:01:00,
2013-08-07 19:06:00,77.4,61.0,29.97,SW,225,4.0,6.3,57,0.00,,---,0.00,VWS V14.01,2013-08-07 23:06:00,
2013-08-07 19:11:00,77.2,60.3,29.97,SE,135,3.6,5.4,56,0.00,,---,0.00,VWS V14.01,2013-08-07 23:11:00,
2013-08-07 19:16:00,77.2,61.3,29.97,SW,225,4.0,4.0,58,0.00,,---,0.00,VWS V14.01,2013-08-07 23:16:00,
2013-08-07 19:21:00,77.0,62.1,29.97,SE,135,0.0,3.1,60,0.00,,---,0.00,VWS V14.01,2013-08-07 23:21:00,
2013-08-07 19:27:00,76.6,62.2,29.97,WSW,248,0.0,3.6,61,0.00,,---,0.00,VWS V14.01,2013-08-07 23:27:00,
2013-08-07 19:32:00,76.3,62.8,29.97,SW,225,2.2,2.7,63,0.00,,---,0.00,VWS V14.01,2013-08-07 23:32:00,
2013-08-07 19:37:00,75.9,62.4,29.97,SE,135,0.0,2.7,63,0.00,,---,0.00,VWS V14.01,2013-08-07 23:37:00,
2013-08-07 19:42:00,75.6,62.1,29.97,East,90,2.7,7.2,63,0.00,,---,0.00,VWS V14.01,2013-08-07 23:42:00,
2013-08-07 19:47:00,75.4,61.9,29.97,South,180,2.7,5.8,63,0.00,,---,0.00,VWS V14.01,2013-08-07 23:47:00,
2013-08-07 19:52:00,75.0,62.0,29.97,SW,225,2.7,2.7,64,0.00,,---,0.00,VWS V14.01,2013-08-07 23:52:00,
2013-08-07 19:57:00,74.8,61.9,30.00,SW,225,2.2,4.0,64,0.00,,---,0.00,VWS V14.01,2013-08-07 23:57:00,
2013-08-07 20:02:00,74.7,61.7,30.00,SE,135,3.1,4.9,64,0.00,,---,0.00,VWS V14.01,2013-08-08 00:02:00,
2013-08-07 20:07:00,74.5,61.5,30.00,South,180,0.0,3.1,64,0.00,,---,0.00,VWS V14.01,2013-08-08 00:07:00,
2013-08-07 20:12:00,74.3,61.3,30.00,SE,135,5.4,5.4,64,0.00,,---,0.00,VWS V14.01,2013-08-08 00:12:00,
2013-08-07 20:17:00,74.1,61.2,30.00,SW,225,2.7,4.0,64,0.00,,---,0.00,VWS V14.01,2013-08-08 00:17:00,
2013-08-07 20:21:00,73.9,61.0,30.00,West,270,0.0,5.4,64,0.00,,---,0.00,VWS V14.01,2013-08-08 00:21:00,
2013-08-07 20:27:00,73.8,61.3,30.00,SW,225,0.0,2.7,65,0.00,,---,0.00,VWS V14.01,2013-08-08 00:27:00,
2013-08-07 20:32:00,73.4,61.4,30.00,SE,135,4.0,4.0,66,0.00,,---,0.00,VWS V14.01,2013-08-08 00:32:00,
2013-08-07 20:37:00,73.2,61.2,30.00,SW,225,3.1,3.1,66,0.00,,---,0.00,VWS V14.01,2013-08-08 00:37:00,
2013-08-07 20:42:00,73.0,61.5,30.00,SW,225,3.1,5.8,67,0.00,,---,0.00,VWS V14.01,2013-08-08 00:42:00,
2013-08-07 20:47:00,72.9,61.7,30.00,SW,225,5.8,5.8,68,0.00,,---,0.00,VWS V14.01,2013-08-08 00:47:00,
2013-08-07 20:52:00,72.5,61.8,30.00,ENE,68,0.0,0.0,69,0.00,,---,0.00,VWS V14.01,2013-08-08 00:52:00,
2013-08-07 20:57:00,72.5,61.8,30.00,SW,225,3.6,7.6,69,0.00,,---,0.00,VWS V14.01,2013-08-08 00:57:00,
2013-08-07 21:02:00,72.3,61.6,30.00,SW,225,4.0,4.0,69,0.00,,---,0.00,VWS V14.01,2013-08-08 01:02:00,
2013-08-07 21:07:00,72.1,61.4,30.00,SW,225,4.0,5.4,69,0.00,,---,0.00,VWS V14.01,2013-08-08 01:07:00,
2013-08-07 21:12:00,72.1,61.4,30.00,SW,225,4.0,5.4,69,0.00,,---,0.00,VWS V14.01,2013-08-08 01:12:00,
2013-08-07 21:17:00,72.1,61.4,30.00,SSW,202,2.2,6.3,69,0.00,,---,0.00,VWS V14.01,2013-08-08 01:17:00,
2013-08-07 21:22:00,72.0,61.2,30.00,SE,135,0.0,0.0,69,0.00,,---,0.00,VWS V14.01,2013-08-08 01:22:00,
2013-08-07 21:27:00,71.8,61.1,30.00,SW,225,3.6,3.6,69,0.00,,---,0.00,VWS V14.01,2013-08-08 01:27:00,
2013-08-07 21:32:00,71.8,61.5,30.00,SW,225,3.1,3.1,70,0.00,,---,0.00,VWS V14.01,2013-08-08 01:32:00,
2013-08-07 21:37:00,71.6,61.3,30.00,West,270,3.1,3.1,70,0.00,,---,0.00,VWS V14.01,2013-08-08 01:37:00,
2013-08-07 21:42:00,71.8,61.9,30.00,SW,225,4.5,5.8,71,0.00,,---,0.00,VWS V14.01,2013-08-08 01:42:00,
2013-08-07 21:47:00,71.8,61.9,30.00,SW,225,2.2,2.2,71,0.00,,---,0.00,VWS V14.01,2013-08-08 01:47:00,
2013-08-07 21:52:00,71.8,61.9,30.00,South,180,3.1,3.1,71,0.00,,---,0.00,VWS V14.01,2013-08-08 01:52:00,
2013-08-07 21:57:00,71.8,61.9,30.00,South,180,2.2,5.8,71,0.00,,---,0.00,VWS V14.01,2013-08-08 01:57:00,
2013-08-07 22:02:00,72.0,62.0,30.00,South,180,4.9,7.6,71,0.00,,---,0.00,VWS V14.01,2013-08-08 02:02:00,
2013-08-07 22:07:00,72.0,62.0,30.00,SW,225,4.5,4.5,71,0.00,,---,0.00,VWS V14.01,2013-08-08 02:07:00,
2013-08-07 22:12:00,72.0,62.0,30.00,SW,225,0.0,4.9,71,0.00,,---,0.00,VWS V14.01,2013-08-08 02:12:00,
2013-08-07 22:17:00,72.0,62.5,30.00,SW,225,2.7,3.1,72,0.00,,---,0.00,VWS V14.01,2013-08-08 02:17:00,
2013-08-07 22:22:00,72.0,62.8,30.00,South,180,3.6,3.6,73,0.00,,---,0.00,VWS V14.01,2013-08-08 02:22:00,
2013-08-07 22:27:00,72.0,63.2,30.00,WNW,292,2.7,7.2,74,0.00,,---,0.00,VWS V14.01,2013-08-08 02:27:00,
2013-08-07 22:32:00,71.6,63.3,30.00,SW,225,0.0,0.0,75,0.00,,---,0.00,VWS V14.01,2013-08-08 02:32:00,
2013-08-07 22:37:00,71.4,63.5,30.00,SW,225,2.7,2.7,76,0.00,,---,0.00,VWS V14.01,2013-08-08 02:37:00,
2013-08-07 22:42:00,71.2,64.0,30.00,South,180,2.7,2.7,78,0.00,,---,0.00,VWS V14.01,2013-08-08 02:42:00,
2013-08-07 22:47:00,71.2,64.4,30.00,South,180,0.0,3.1,79,0.00,,---,0.00,VWS V14.01,2013-08-08 02:47:00,
2013-08-07 22:52:00,71.1,64.6,30.00,SE,135,4.5,4.5,80,0.00,,---,0.00,VWS V14.01,2013-08-08 02:52:00,
2013-08-07 22:57:00,71.1,64.6,30.00,SW,225,2.2,2.2,80,0.00,,---,0.00,VWS V14.01,2013-08-08 02:57:00,
2013-08-07 23:02:00,71.1,64.9,30.00,SW,225,2.7,3.6,81,0.00,,---,0.00,VWS V14.01,2013-08-08 03:02:00,
2013-08-07 23:07:00,71.2,65.1,30.00,South,180,3.1,3.1,81,0.00,,---,0.00,VWS V14.01,2013-08-08 03:07:00,
2013-08-07 23:12:00,71.4,65.6,30.00,SW,225,3.1,3.1,82,0.00,,---,0.00,VWS V14.01,2013-08-08 03:12:00,
2013-08-07 23:17:00,71.4,65.6,30.00,NE,45,2.2,2.2,82,0.00,,---,0.00,VWS V14.01,2013-08-08 03:17:00,
2013-08-07 23:22:00,71.2,65.8,30.00,West,270,2.2,2.2,83,0.00,,---,0.00,VWS V14.01,2013-08-08 03:22:00,
2013-08-07 23:27:00,71.1,65.6,30.00,SE,135,5.4,11.0,83,0.00,,---,0.00,VWS V14.01,2013-08-08 03:27:00,
2013-08-07 23:32:00,71.1,66.0,30.00,SE,135,4.0,4.0,84,0.00,,---,0.00,VWS V14.01,2013-08-08 03:32:00,
2013-08-07 23:37:00,71.1,66.0,30.00,South,180,2.7,2.7,84,0.00,,---,0.00,VWS V14.01,2013-08-08 03:37:00,
2013-08-07 23:42:00,70.9,65.8,30.00,SE,135,3.6,4.0,84,0.00,,---,0.00,VWS V14.01,2013-08-08 03:42:00,
2013-08-07 23:47:00,70.9,66.2,30.00,West,270,2.7,3.6,85,0.00,,---,0.00,VWS V14.01,2013-08-08 03:47:00,
2013-08-07 23:52:00,70.9,66.2,30.00,ENE,68,3.6,3.6,85,0.00,,---,0.00,VWS V14.01,2013-08-08 03:52:00,
2013-08-07 23:57:00,70.9,66.2,30.00,SW,225,7.6,7.6,85,0.00,,---,0.00,VWS V14.01,2013-08-08 03:57:00,